Conroe, TX

10:14 AM CDT on September 21, 2017 (GMT -0500)
Montgomery County

Weather History for KCXO - March, 2013

Change the Weather History Date:

Saturday, March 9, 2013

  Actual Average Record
Temperature  
Mean Temperature 67 °F -  
Max Temperature 75 °F 67 °F 82 °F (2009)
Min Temperature 59 °F 46 °F 35 °F (1998)
Cooling Degree Days 2    
Growing Degree Days 17 (Base 50)    
Moisture  
Dew Point 59 °F    
Average Humidity 81    
Maximum Humidity 96    
Minimum Humidity 62    
Precipitation  
Precipitation 0.00 in - - ()
Sea Level Pressure  
Sea Level Pressure 29.93 in    
Wind  
Wind Speed 9 mph (SE)    
Max Wind Speed 21 mph    
Max Gust Speed 30 mph    
Visibility 10 miles    
Events      
Averages and records for this station are not official NWS values.
T = Trace of Precipitation, MM = Missing Value Source: NWS Daily Summary

Daily Weather History Graph

Daily Weather History Graph

Search for Another Location

Airport or City:

Trip Planner

Search our weather history database for the weather conditions in past years. The results will help you decide how hot, cold, wet, or windy it might be!

Date:

Astronomy

Mar. 09, 2013 Rise Set
Actual Time 6:38 AM CST 6:26 PM CST
Civil Twilight 6:14 AM CST 6:50 PM CST
Nautical Twilight 5:46 AM CST 7:18 PM CST
Astronomical Twilight 5:18 AM CST 7:45 PM CST
Moon 4:55 AM CST (3/9) 4:34 PM CST (3/9)
Length of Visible Light 12h 35m
Length of Day
11h 47m
Waning Crescent, 5% of the Moon is Illuminated
Mar 9
Waning Crescent
Mar 11
New
Mar 19
First Quarter
Mar 27
Full
Apr 2
Last Quarter

Hourly Weather History & Observations

Time (CST) Temp. Dew Point Humidity Pressure Visibility Wind Dir Wind Speed Gust Speed Precip Events Conditions
12:53 AM 60.1 °F 55.9 °F 86% 30.08 in 10.0 mi SE 4.6 mph - N/A   Overcast
1:53 AM 60.1 °F 55.9 °F 86% 30.05 in 10.0 mi ESE 5.8 mph - N/A   Overcast
2:53 AM 60.1 °F 57.0 °F 90% 30.03 in 10.0 mi ESE 3.5 mph - N/A   Overcast
3:10 AM 59.0 °F 57.2 °F 94% 30.02 in 10.0 mi Variable 4.6 mph - N/A   Overcast
3:53 AM 59.0 °F 57.0 °F 93% 30.00 in 10.0 mi ESE 3.5 mph - N/A   Mostly Cloudy
4:12 AM 59.0 °F 57.2 °F 94% 30.00 in 10.0 mi ESE 5.8 mph - N/A   Overcast
4:25 AM 59.0 °F 57.2 °F 94% 30.00 in 10.0 mi ESE 4.6 mph - N/A   Overcast
4:43 AM 60.8 °F 57.2 °F 88% 30.00 in 10.0 mi SE 5.8 mph - N/A   Overcast
4:53 AM 60.1 °F 57.9 °F 93% 29.99 in 9.0 mi ESE 5.8 mph - N/A   Overcast
5:30 AM 60.8 °F 57.2 °F 88% 29.99 in 9.0 mi Variable 5.8 mph - N/A   Overcast
5:48 AM 60.8 °F 57.2 °F 88% 29.99 in 10.0 mi ESE 5.8 mph - N/A   Mostly Cloudy
5:53 AM 60.1 °F 59.0 °F 96% 29.98 in 10.0 mi ESE 5.8 mph - N/A   Mostly Cloudy
6:41 AM 60.8 °F 59.0 °F 94% 29.99 in 10.0 mi ESE 5.8 mph - N/A   Scattered Clouds
6:53 AM 61.0 °F 59.0 °F 93% 29.98 in 10.0 mi SE 5.8 mph - N/A   Partly Cloudy
8:53 AM 64.9 °F 60.1 °F 84% 29.99 in 10.0 mi SE 9.2 mph 16.1 mph N/A   Clear
9:36 AM 66.2 °F 60.8 °F 83% 29.99 in 10.0 mi SSE 13.8 mph - N/A   Mostly Cloudy
9:53 AM 68.0 °F 61.0 °F 78% 29.99 in 10.0 mi SE 17.3 mph 21.9 mph N/A   Overcast
10:53 AM 72.0 °F 61.0 °F 68% 29.96 in 10.0 mi SSE 16.1 mph 25.3 mph N/A   Mostly Cloudy
11:53 AM 73.0 °F 61.0 °F 66% 29.95 in 10.0 mi South 17.3 mph 29.9 mph N/A   Overcast
12:06 PM 73.4 °F 60.8 °F 65% 29.94 in 10.0 mi SSE 20.7 mph 27.6 mph N/A   Overcast
12:53 PM 75.0 °F 61.0 °F 62% 29.91 in 10.0 mi SSE 18.4 mph 28.8 mph N/A   Overcast
1:44 PM 73.4 °F 60.8 °F 65% 29.87 in 10.0 mi SE 16.1 mph 27.6 mph N/A   Overcast
1:53 PM 73.9 °F 61.0 °F 64% 29.86 in 10.0 mi SE 15.0 mph 27.6 mph N/A   Overcast
2:53 PM 71.1 °F 61.0 °F 70% 29.86 in 10.0 mi SE 18.4 mph 25.3 mph N/A   Overcast
3:26 PM 69.8 °F 60.8 °F 73% 29.86 in 10.0 mi SE 18.4 mph 27.6 mph N/A   Overcast
3:53 PM 70.0 °F 60.1 °F 71% 29.84 in 10.0 mi SE 15.0 mph 21.9 mph N/A   Overcast
4:53 PM 72.0 °F 60.1 °F 66% 29.82 in 10.0 mi SSE 18.4 mph 27.6 mph N/A   Overcast
5:53 PM 70.0 °F 60.1 °F 71% 29.81 in 10.0 mi SE 16.1 mph 25.3 mph N/A   Overcast
6:53 PM 68.0 °F 60.1 °F 76% 29.83 in 10.0 mi SSE 12.7 mph - N/A   Overcast
7:53 PM 66.9 °F 61.0 °F 81% 29.81 in 10.0 mi SE 15.0 mph - N/A   Overcast
8:53 PM 66.9 °F 61.0 °F 81% 29.79 in 10.0 mi SE 16.1 mph - N/A   Overcast
9:53 PM 66.9 °F 61.0 °F 81% 29.81 in 10.0 mi SE 10.4 mph - N/A   Overcast
10:53 PM 66.9 °F 62.1 °F 84% 29.80 in 10.0 mi SE 8.1 mph - N/A   Overcast
11:53 PM 66.9 °F 62.1 °F 84% 29.80 in 10.0 mi SE 10.4 mph - N/A   Overcast